LPA735 UGTB-EFHK

Flight info

Callsign LPA735
Flight time N/A
Altitude 38000
Route DF N11 BARUS N37 SARPI UM10 GOKPA/N0476F400 UL746 ODERO T86 MATEL T746 ARGES DCT KARIL DCT KENIN DCT LENOV N133 KOTEK/N0482F410 M866 GERVI M857 SUWGI DCT VESAM DCT TICWA DCT KEMET DCT LARTI DCT KOIVU
Aircraft B772/H-SDE2E3FGHIJ5LORVWXY/LB1D1

Departure

Time 2026-04-26 11:26
Airport Tbilisi International Airport (UGTB)

Arrival

Time N/A
Airport Helsinki Vantaa Airport (EFHK)
Time Latitude Longitude Altitude Speed Heading
2026-04-26 10:12 41.66887 44.96325 1584 ft 0 kts 42°
2026-04-26 11:09 41.66884 44.96321 1585 ft 2 kts 42°
2026-04-26 11:09 41.66876 44.96312 1584 ft 1 kts 42°
2026-04-26 11:09 41.66865 44.96300 1583 ft 2 kts 29°
2026-04-26 11:10 41.66852 44.96292 1582 ft 2 kts 13°
2026-04-26 11:10 41.66837 44.96289 1581 ft 2 kts 359°
2026-04-26 11:10 41.66822 44.96291 1580 ft 2 kts 345°
2026-04-26 11:10 41.66808 44.96298 1579 ft 2 kts 330°
2026-04-26 11:11 41.66796 44.96309 1579 ft 1 kts 316°
2026-04-26 11:11 41.66792 44.96315 1579 ft 0 kts 314°
2026-04-26 11:15 41.66809 44.96291 1579 ft 6 kts 314°
2026-04-26 11:15 41.66848 44.96238 1579 ft 8 kts 314°
2026-04-26 11:15 41.66893 44.96175 1580 ft 10 kts 313°
2026-04-26 11:15 41.66941 44.96106 1581 ft 10 kts 313°
2026-04-26 11:16 41.66989 44.96039 1582 ft 9 kts 314°
2026-04-26 11:16 41.67037 44.95970 1583 ft 10 kts 313°
2026-04-26 11:16 41.67080 44.95883 1582 ft 12 kts 304°
2026-04-26 11:16 41.67141 44.95793 1583 ft 12 kts 314°
2026-04-26 11:17 41.67202 44.95709 1585 ft 12 kts 314°
2026-04-26 11:17 41.67262 44.95625 1586 ft 12 kts 313°
2026-04-26 11:17 41.67325 44.95535 1586 ft 13 kts 313°
2026-04-26 11:17 41.67388 44.95445 1590 ft 11 kts 313°
2026-04-26 11:18 41.67437 44.95369 1593 ft 9 kts 310°
2026-04-26 11:18 41.67479 44.95302 1596 ft 9 kts 310°
2026-04-26 11:18 41.67528 44.95231 1599 ft 11 kts 313°
2026-04-26 11:18 41.67587 44.95148 1602 ft 12 kts 314°
2026-04-26 11:19 41.67635 44.95081 1604 ft 8 kts 314°
2026-04-26 11:19 41.67664 44.95021 1605 ft 8 kts 278°
2026-04-26 11:19 41.67649 44.94925 1602 ft 13 kts 255°
2026-04-26 11:19 41.67619 44.94789 1597 ft 11 kts 254°
2026-04-26 11:20 41.67593 44.94670 1593 ft 15 kts 253°
2026-04-26 11:20 41.67574 44.94587 1591 ft 13 kts 253°
2026-04-26 11:20 41.67537 44.94448 1588 ft 11 kts 249°
2026-04-26 11:20 41.67525 44.94402 1587 ft 5 kts 250°
2026-04-26 11:21 41.67521 44.94358 1587 ft 5 kts 281°
2026-04-26 11:21 41.67545 44.94311 1587 ft 7 kts 316°
2026-04-26 11:21 41.67592 44.94253 1588 ft 9 kts 316°
2026-04-26 11:21 41.67644 44.94186 1588 ft 10 kts 316°
2026-04-26 11:22 41.67686 44.94132 1589 ft 6 kts 316°
2026-04-26 11:22 41.67713 44.94100 1589 ft 3 kts 326°
2026-04-26 11:22 41.67732 44.94089 1590 ft 2 kts 346°
2026-04-26 11:22 41.67748 44.94085 1590 ft 2 kts 348°
2026-04-26 11:23 41.67764 44.94077 1591 ft 3 kts 332°
2026-04-26 11:23 41.67773 44.94059 1591 ft 1 kts 273°
2026-04-26 11:23 41.67764 44.94048 1590 ft 2 kts 186°
2026-04-26 11:23 41.67742 44.94064 1589 ft 0 kts 137°
2026-04-26 11:25 41.67739 44.94067 1589 ft 5 kts 137°
2026-04-26 11:25 41.67606 44.94232 1588 ft 58 kts 136°
2026-04-26 11:25 41.67135 44.94827 1565 ft 125 kts 136°
2026-04-26 11:26 41.66373 44.95783 1586 ft 171 kts 137°
2026-04-26 11:26 41.65509 44.96869 2125 ft 172 kts 137°
2026-04-26 11:26 41.64613 44.97983 2712 ft 182 kts 137°
2026-04-26 11:26 41.63597 44.99056 3342 ft 191 kts 151°
2026-04-26 11:27 41.62309 44.99387 4083 ft 191 kts 188°
2026-04-26 11:27 41.61117 44.98650 4427 ft 199 kts 224°
2026-04-26 11:27 41.60414 44.96994 4500 ft 217 kts 261°
2026-04-26 11:27 41.60538 44.94927 4592 ft 235 kts 293°
2026-04-26 11:28 41.61523 44.93097 4703 ft 253 kts 318°
2026-04-26 11:28 41.62993 44.91649 4900 ft 267 kts 336°
2026-04-26 11:28 41.64653 44.90530 5381 ft 271 kts 329°
2026-04-26 11:28 41.66238 44.89183 5910 ft 274 kts 328°
2026-04-26 11:29 41.67849 44.87785 6447 ft 276 kts 328°
2026-04-26 11:29 41.69456 44.86389 6993 ft 277 kts 327°
2026-04-26 11:29 41.71103 44.84959 7526 ft 279 kts 327°
2026-04-26 11:29 41.72718 44.83556 8073 ft 280 kts 326°
2026-04-26 11:30 41.74446 44.82350 8557 ft 283 kts 343°
2026-04-26 11:30 41.75744 44.81935 8852 ft 285 kts 343°
2026-04-26 11:30 41.77980 44.80256 9140 ft 285 kts 311°
2026-04-26 11:30 41.79235 44.78214 9691 ft 282 kts 306°
2026-04-26 11:31 41.80435 44.76138 10270 ft 281 kts 306°
2026-04-26 11:31 41.81646 44.74031 10717 ft 284 kts 306°
2026-04-26 11:31 41.82850 44.71937 11240 ft 285 kts 305°
2026-04-26 11:31 41.84083 44.69787 11475 ft 299 kts 305°
2026-04-26 11:32 41.85405 44.67480 11591 ft 317 kts 306°
2026-04-26 11:32 41.86789 44.65064 11737 ft 332 kts 306°
2026-04-26 11:32 41.88165 44.62661 11880 ft 347 kts 306°
2026-04-26 11:32 41.89652 44.59977 12031 ft 360 kts 301°
2026-04-26 11:33 41.90804 44.56939 12267 ft 369 kts 289°
2026-04-26 11:33 41.91456 44.53599 12759 ft 371 kts 277°
2026-04-26 11:33 41.91617 44.50151 13395 ft 371 kts 270°
2026-04-26 11:33 41.91638 44.46688 14037 ft 372 kts 269°
2026-04-26 11:34 41.91644 44.43252 14648 ft 375 kts 269°
2026-04-26 11:34 41.91646 44.39735 15303 ft 378 kts 269°
2026-04-26 11:34 41.91643 44.36186 15964 ft 381 kts 269°
2026-04-26 11:34 41.91639 44.32747 16606 ft 383 kts 269°
2026-04-26 11:35 41.91633 44.29229 17214 ft 387 kts 269°
2026-04-26 11:35 41.91625 44.25594 17802 ft 391 kts 268°
2026-04-26 11:35 41.91615 44.21968 18416 ft 394 kts 269°
2026-04-26 11:35 41.91604 44.18264 19018 ft 398 kts 268°
2026-04-26 11:36 41.91591 44.14539 19564 ft 402 kts 269°
2026-04-26 11:36 41.91577 44.10776 20177 ft 404 kts 268°
2026-04-26 11:36 41.91562 44.06996 20765 ft 407 kts 269°
2026-04-26 11:36 41.91546 44.03186 21348 ft 409 kts 269°
2026-04-26 11:37 41.91527 43.99368 21891 ft 413 kts 269°
2026-04-26 11:37 41.91508 43.95509 22444 ft 415 kts 268°
2026-04-26 11:37 41.91487 43.91611 22962 ft 419 kts 268°
2026-04-26 11:37 41.91464 43.87697 23394 ft 424 kts 268°
2026-04-26 11:38 41.91440 43.83727 23913 ft 426 kts 268°
2026-04-26 11:38 41.91415 43.79705 24513 ft 427 kts 268°
2026-04-26 11:38 41.91388 43.75731 25132 ft 427 kts 268°
2026-04-26 11:38 41.91360 43.71742 25686 ft 427 kts 268°
2026-04-26 11:39 41.91330 43.67767 26174 ft 429 kts 268°
2026-04-26 11:39 41.91299 43.63771 26640 ft 431 kts 267°
2026-04-26 11:39 41.91266 43.59728 27127 ft 432 kts 267°
2026-04-26 11:39 41.91231 43.55738 27642 ft 432 kts 267°
2026-04-26 11:40 41.91196 43.51707 28125 ft 433 kts 267°
2026-04-26 11:40 41.91158 43.47631 28574 ft 434 kts 267°
2026-04-26 11:40 41.91120 43.43597 28978 ft 435 kts 267°
2026-04-26 11:40 41.91080 43.39544 29386 ft 437 kts 266°
2026-04-26 11:41 41.91038 43.35451 29774 ft 438 kts 266°
2026-04-26 11:42 41.90713 43.07577 32979 ft 434 kts 266°
2026-04-26 11:43 41.90661 43.03557 33497 ft 431 kts 265°
2026-04-26 11:43 41.90608 42.99535 33967 ft 430 kts 265°
2026-04-26 11:43 41.90553 42.95590 34342 ft 430 kts 265°
2026-04-26 11:43 41.90497 42.91629 34657 ft 431 kts 265°
2026-04-26 11:44 41.90420 42.87641 34948 ft 430 kts 263°
2026-04-26 11:44 41.90037 42.83617 35178 ft 429 kts 256°
2026-04-26 11:44 41.89285 42.79781 35393 ft 430 kts 251°
2026-04-26 11:44 41.88392 42.76003 35648 ft 430 kts 251°
2026-04-26 11:45 41.87477 42.72173 35871 ft 431 kts 251°
2026-04-26 11:45 41.86565 42.68377 36090 ft 432 kts 251°
2026-04-26 11:45 41.85690 42.64744 36266 ft 433 kts 251°
2026-04-26 11:45 41.84745 42.60836 36430 ft 435 kts 251°
2026-04-26 11:46 41.83821 42.57024 36678 ft 436 kts 251°
2026-04-26 11:46 41.82899 42.53229 36949 ft 436 kts 251°
2026-04-26 11:46 41.82037 42.49686 37158 ft 437 kts 251°
2026-04-26 11:46 41.81084 42.45781 37298 ft 439 kts 252°
2026-04-26 11:47 41.80149 42.41955 37484 ft 439 kts 252°
2026-04-26 11:47 41.79197 42.38068 37694 ft 439 kts 252°
2026-04-26 11:47 41.78330 42.34528 37859 ft 439 kts 251°
2026-04-26 11:47 41.77348 42.30534 38017 ft 440 kts 251°
2026-04-26 11:48 41.75441 42.22792 38067 ft 441 kts 251°
2026-04-26 11:48 41.73555 42.15161 38067 ft 440 kts 251°
2026-04-26 11:49 41.71661 42.07519 38070 ft 440 kts 251°
2026-04-26 11:49 41.69780 41.99939 38052 ft 440 kts 251°
2026-04-26 11:50 41.67868 41.92258 38033 ft 440 kts 251°
2026-04-26 11:50 41.65977 41.84682 37998 ft 441 kts 251°
2026-04-26 11:51 41.64046 41.76977 37956 ft 442 kts 251°
2026-04-26 11:51 41.62217 41.69700 37940 ft 441 kts 251°
2026-04-26 11:52 41.60241 41.61864 37943 ft 443 kts 251°
2026-04-26 11:52 41.57994 41.54390 37937 ft 442 kts 246°
2026-04-26 11:53 41.55867 41.46777 37938 ft 442 kts 256°
2026-04-26 11:54 41.55441 41.34719 37942 ft 446 kts 272°
2026-04-26 11:54 41.55935 41.26480 37944 ft 446 kts 272°
2026-04-26 11:55 41.56415 41.18235 37941 ft 447 kts 272°
2026-04-26 11:55 41.56882 41.10022 37938 ft 446 kts 272°
2026-04-26 11:56 41.57341 41.01775 37943 ft 447 kts 272°
2026-04-26 11:56 41.57791 40.93568 37948 ft 447 kts 272°
2026-04-26 11:57 41.58234 40.85368 37936 ft 446 kts 272°
2026-04-26 11:57 41.58672 40.77132 37941 ft 449 kts 272°
2026-04-26 11:58 41.59103 40.68928 37943 ft 448 kts 272°
2026-04-26 11:58 41.59533 40.60608 37943 ft 449 kts 272°
2026-04-26 11:59 41.59953 40.52372 37944 ft 450 kts 272°
2026-04-26 11:59 41.60370 40.44084 37939 ft 451 kts 272°
2026-04-26 12:00 41.60782 40.35787 37944 ft 449 kts 272°
2026-04-26 12:00 41.61189 40.27451 37946 ft 450 kts 271°
2026-04-26 12:01 41.61589 40.19128 37947 ft 450 kts 271°
2026-04-26 12:01 41.61983 40.10828 37938 ft 451 kts 271°
2026-04-26 12:02 41.62370 40.02535 37945 ft 451 kts 271°
2026-04-26 12:02 41.62755 39.94157 37938 ft 452 kts 271°
2026-04-26 12:03 41.63131 39.85830 37947 ft 452 kts 271°
2026-04-26 12:03 41.63503 39.77474 37953 ft 451 kts 271°
2026-04-26 12:04 41.63866 39.69165 37951 ft 452 kts 271°
2026-04-26 12:04 41.64227 39.60796 37955 ft 452 kts 271°
2026-04-26 12:05 41.64580 39.52432 37952 ft 452 kts 271°
2026-04-26 12:05 41.64925 39.44111 37953 ft 453 kts 271°
2026-04-26 12:06 41.65269 39.35670 37949 ft 453 kts 271°
2026-04-26 12:06 41.65602 39.27349 37956 ft 455 kts 271°
2026-04-26 12:07 41.65933 39.18933 37958 ft 453 kts 271°
2026-04-26 12:07 41.66257 39.10519 37951 ft 454 kts 271°
2026-04-26 12:08 41.66573 39.02154 37957 ft 455 kts 271°
2026-04-26 12:08 41.66884 38.93768 37947 ft 454 kts 271°
2026-04-26 12:09 41.67191 38.85319 37955 ft 456 kts 271°
2026-04-26 12:09 41.67493 38.76847 37956 ft 456 kts 271°
2026-04-26 12:10 41.67787 38.68411 37955 ft 457 kts 271°
2026-04-26 12:10 41.68077 38.59925 37954 ft 457 kts 271°
2026-04-26 12:11 41.68359 38.51487 37938 ft 457 kts 271°
2026-04-26 12:11 41.68633 38.43094 37952 ft 457 kts 271°
2026-04-26 12:12 41.68901 38.34703 37942 ft 457 kts 271°
2026-04-26 12:12 41.69168 38.26158 37948 ft 457 kts 271°
2026-04-26 12:13 41.69425 38.17717 37941 ft 456 kts 271°
2026-04-26 12:13 41.69678 38.09200 37938 ft 458 kts 271°
2026-04-26 12:14 41.69924 38.00715 37939 ft 458 kts 271°
2026-04-26 12:14 41.70164 37.92229 37929 ft 459 kts 271°
2026-04-26 12:15 41.70399 37.83688 37935 ft 460 kts 271°
2026-04-26 12:15 41.70627 37.75171 37930 ft 459 kts 271°
2026-04-26 12:16 41.70849 37.66661 37929 ft 460 kts 271°
2026-04-26 12:16 41.71063 37.58154 37930 ft 460 kts 271°
2026-04-26 12:17 41.71273 37.49593 37929 ft 460 kts 271°
2026-04-26 12:17 41.71475 37.41075 37927 ft 461 kts 271°
2026-04-26 12:18 41.71670 37.32573 37929 ft 461 kts 270°
2026-04-26 12:18 41.71862 37.23945 37929 ft 462 kts 270°
2026-04-26 12:19 41.72045 37.15414 37931 ft 462 kts 270°
2026-04-26 12:19 41.72223 37.06849 37922 ft 463 kts 271°
2026-04-26 12:20 41.72393 36.98331 37922 ft 462 kts 271°
2026-04-26 12:20 41.72559 36.89713 37929 ft 463 kts 271°
2026-04-26 12:21 41.72717 36.81194 37938 ft 463 kts 271°
2026-04-26 12:21 41.72871 36.72583 37946 ft 463 kts 271°
2026-04-26 12:22 41.73016 36.64023 37943 ft 463 kts 271°
2026-04-26 12:22 41.73157 36.55383 37943 ft 464 kts 271°
2026-04-26 12:23 41.73290 36.46802 37937 ft 464 kts 271°
2026-04-26 12:23 41.73418 36.38169 37944 ft 464 kts 271°
2026-04-26 12:24 41.73539 36.29574 37943 ft 464 kts 270°
2026-04-26 12:24 41.73653 36.21000 37946 ft 464 kts 270°
2026-04-26 12:25 41.73812 36.08172 37951 ft 463 kts 270°
2026-04-26 12:25 41.73907 35.99893 37948 ft 465 kts 270°
2026-04-26 12:26 41.73998 35.91428 37950 ft 464 kts 270°
2026-04-26 12:26 41.74082 35.83015 37946 ft 466 kts 270°
2026-04-26 12:27 41.74161 35.74437 37950 ft 464 kts 270°
2026-04-26 12:27 41.74234 35.65925 37948 ft 465 kts 271°
2026-04-26 12:28 41.74300 35.57408 37946 ft 464 kts 271°
2026-04-26 12:28 41.74359 35.48963 37949 ft 465 kts 271°
2026-04-26 12:29 41.74413 35.40452 37952 ft 464 kts 271°
2026-04-26 12:30 41.74482 35.27669 37952 ft 464 kts 270°
2026-04-26 12:30 41.74520 35.19167 37959 ft 465 kts 270°
2026-04-26 12:31 41.74565 35.06422 37983 ft 465 kts 270°
2026-04-26 12:31 41.74588 34.97998 38010 ft 465 kts 270°
2026-04-26 12:32 41.74604 34.89439 38014 ft 465 kts 270°
2026-04-26 12:33 41.74616 34.76703 38017 ft 465 kts 270°
2026-04-26 12:33 41.74617 34.68225 38017 ft 464 kts 270°
2026-04-26 12:34 41.74794 34.59821 38207 ft 466 kts 278°
2026-04-26 12:34 41.75407 34.55753 38589 ft 463 kts 286°
2026-04-26 12:34 41.76351 34.51659 38949 ft 460 kts 288°
2026-04-26 12:34 41.77264 34.47866 39115 ft 459 kts 288°
2026-04-26 12:35 41.78249 34.43754 39200 ft 461 kts 288°
2026-04-26 12:35 41.79206 34.39723 39305 ft 462 kts 288°
2026-04-26 12:35 41.80180 34.35600 39449 ft 462 kts 288°
2026-04-26 12:35 41.81131 34.31550 39653 ft 461 kts 287°
2026-04-26 12:36 41.82053 34.27609 39835 ft 460 kts 287°
2026-04-26 12:36 41.82994 34.23573 39979 ft 460 kts 287°
2026-04-26 12:36 41.83943 34.19489 40011 ft 461 kts 287°
2026-04-26 12:37 41.85842 34.11291 40000 ft 460 kts 287°
2026-04-26 12:37 41.87711 34.03182 40001 ft 459 kts 287°
2026-04-26 12:38 41.89579 33.95042 39991 ft 458 kts 287°
2026-04-26 12:38 41.91438 33.86913 39984 ft 459 kts 287°
2026-04-26 12:39 41.93303 33.78729 39991 ft 458 kts 287°
2026-04-26 12:39 41.95142 33.70622 39968 ft 458 kts 287°
2026-04-26 12:40 41.96776 33.62418 39977 ft 459 kts 284°
2026-04-26 12:40 41.98341 33.54187 39962 ft 459 kts 284°
2026-04-26 12:41 41.99927 33.45863 39967 ft 459 kts 284°
2026-04-26 12:41 42.01500 33.37606 39976 ft 457 kts 284°
2026-04-26 12:42 42.03068 33.29345 39984 ft 458 kts 284°
2026-04-26 12:42 42.04637 33.21060 39989 ft 457 kts 284°
2026-04-26 12:43 42.06197 33.12790 39992 ft 457 kts 284°
2026-04-26 12:43 42.07777 33.04531 39989 ft 457 kts 285°
2026-04-26 12:44 42.09478 32.96283 39985 ft 458 kts 285°
2026-04-26 12:44 42.11165 32.88061 39993 ft 458 kts 285°
2026-04-26 12:45 42.12848 32.79801 39986 ft 456 kts 285°
2026-04-26 12:45 42.14510 32.71605 39977 ft 456 kts 285°
2026-04-26 12:46 42.16176 32.63349 39982 ft 455 kts 285°
2026-04-26 12:46 42.17815 32.55179 39978 ft 455 kts 285°
2026-04-26 12:47 42.19466 32.46913 39982 ft 455 kts 285°
2026-04-26 12:47 42.21091 32.38739 39977 ft 453 kts 285°
2026-04-26 12:48 42.22715 32.30541 39966 ft 453 kts 285°
2026-04-26 12:48 42.24339 32.22303 39970 ft 453 kts 285°
2026-04-26 12:49 42.25954 32.14055 39989 ft 455 kts 285°
2026-04-26 12:49 42.27566 32.05808 39977 ft 455 kts 285°
2026-04-26 12:50 42.29172 31.97586 39981 ft 454 kts 285°
2026-04-26 12:50 42.30767 31.89384 39966 ft 452 kts 285°
2026-04-26 12:51 42.32350 31.81212 39969 ft 451 kts 285°
2026-04-26 12:51 42.33934 31.72996 39964 ft 451 kts 285°
2026-04-26 12:52 42.35495 31.64866 39959 ft 450 kts 285°
2026-04-26 12:52 42.37062 31.56672 39963 ft 451 kts 285°
2026-04-26 12:53 42.38621 31.48485 39964 ft 450 kts 285°
2026-04-26 12:53 42.40172 31.40305 39953 ft 451 kts 285°
2026-04-26 12:54 42.41721 31.32101 39968 ft 451 kts 284°
2026-04-26 12:54 42.43267 31.23876 39967 ft 450 kts 284°
2026-04-26 12:55 42.44797 31.15704 39959 ft 450 kts 284°
2026-04-26 12:55 42.46318 31.07540 39966 ft 449 kts 284°
2026-04-26 12:56 42.47836 30.99353 39967 ft 448 kts 284°
2026-04-26 12:56 42.49341 30.91189 39964 ft 448 kts 284°
2026-04-26 12:57 42.50848 30.82987 39958 ft 447 kts 284°
2026-04-26 12:57 42.52343 30.74811 39954 ft 448 kts 284°
2026-04-26 12:58 42.54565 30.62591 39953 ft 448 kts 284°
2026-04-26 12:58 42.56046 30.54405 39955 ft 447 kts 284°
2026-04-26 12:59 42.57523 30.46208 39956 ft 448 kts 284°
2026-04-26 12:59 42.58990 30.38025 39941 ft 447 kts 284°
2026-04-26 13:00 42.60439 30.29905 39950 ft 447 kts 284°
2026-04-26 13:00 42.62294 30.22398 39953 ft 445 kts 293°
2026-04-26 13:01 42.64727 30.14644 39944 ft 445 kts 293°
2026-04-26 13:01 42.67135 30.06940 39942 ft 445 kts 293°
2026-04-26 13:02 42.69535 29.99224 39949 ft 445 kts 293°
2026-04-26 13:02 42.71927 29.91507 39941 ft 445 kts 293°
2026-04-26 13:03 42.74309 29.83792 39931 ft 445 kts 293°
2026-04-26 13:03 42.76696 29.76044 39932 ft 444 kts 293°
2026-04-26 13:04 42.79081 29.68272 39937 ft 444 kts 293°
2026-04-26 13:04 42.81407 29.60673 39928 ft 444 kts 293°
2026-04-26 13:05 42.83778 29.52899 39939 ft 444 kts 293°
2026-04-26 13:05 42.86127 29.45179 39927 ft 444 kts 293°
2026-04-26 13:06 42.88490 29.37388 39931 ft 445 kts 293°
2026-04-26 13:06 42.90828 29.29657 39938 ft 444 kts 292°
2026-04-26 13:07 42.93173 29.21878 39933 ft 444 kts 292°
2026-04-26 13:07 42.95521 29.14068 39932 ft 444 kts 292°
2026-04-26 13:08 42.97859 29.06265 39929 ft 444 kts 292°
2026-04-26 13:08 43.00180 28.98495 39932 ft 444 kts 292°
2026-04-26 13:09 43.02477 28.90785 39928 ft 443 kts 292°
2026-04-26 13:09 43.04787 28.83007 39929 ft 444 kts 292°
2026-04-26 13:10 43.07739 28.75691 39928 ft 444 kts 305°
2026-04-26 13:10 43.11386 28.68932 39930 ft 445 kts 306°
2026-04-26 13:11 43.15001 28.62222 39926 ft 443 kts 306°
2026-04-26 13:11 43.18619 28.55472 39928 ft 444 kts 306°
2026-04-26 13:12 43.22208 28.48752 39928 ft 442 kts 306°
2026-04-26 13:12 43.25805 28.41997 39924 ft 443 kts 306°
2026-04-26 13:13 43.29412 28.35203 39925 ft 443 kts 306°
2026-04-26 13:13 43.32961 28.28504 39934 ft 443 kts 305°
2026-04-26 13:14 43.36540 28.21730 39933 ft 441 kts 305°
2026-04-26 13:14 43.40090 28.14996 39932 ft 442 kts 305°
2026-04-26 13:15 43.43662 28.08205 39937 ft 441 kts 305°
2026-04-26 13:15 43.47210 28.01444 39940 ft 442 kts 305°
2026-04-26 13:16 43.50764 27.94654 39939 ft 441 kts 305°
2026-04-26 13:16 43.54282 27.87920 39930 ft 440 kts 305°
2026-04-26 13:17 43.59578 27.77750 39939 ft 441 kts 305°
2026-04-26 13:18 43.64867 27.67561 39922 ft 442 kts 305°
2026-04-26 13:19 43.70155 27.57338 39921 ft 440 kts 305°
2026-04-26 13:19 43.73696 27.50471 39925 ft 442 kts 305°
2026-04-26 13:20 43.77173 27.43713 39920 ft 441 kts 305°
2026-04-26 13:20 43.80723 27.36798 39931 ft 442 kts 305°
2026-04-26 13:21 43.84255 27.29901 39927 ft 442 kts 304°
2026-04-26 13:21 43.87787 27.22987 39934 ft 441 kts 304°
2026-04-26 13:22 43.91256 27.16182 39924 ft 442 kts 304°
2026-04-26 13:22 43.94773 27.09266 39920 ft 441 kts 305°
2026-04-26 13:23 43.98264 27.02384 39912 ft 441 kts 304°
2026-04-26 13:23 44.01782 26.95433 39926 ft 443 kts 304°
2026-04-26 13:24 44.05265 26.88536 39918 ft 441 kts 304°
2026-04-26 13:24 44.09029 26.81934 39920 ft 441 kts 315°
2026-04-26 13:25 44.13753 26.76550 39911 ft 441 kts 321°
2026-04-26 13:25 44.18552 26.71402 39919 ft 441 kts 321°
2026-04-26 13:26 44.23344 26.66223 39917 ft 440 kts 321°
2026-04-26 13:26 44.28174 26.60975 39912 ft 443 kts 321°
2026-04-26 13:27 44.32991 26.55721 39906 ft 447 kts 321°
2026-04-26 13:27 44.37851 26.50405 39901 ft 451 kts 321°
2026-04-26 13:28 44.42796 26.44981 39899 ft 453 kts 321°
2026-04-26 13:28 44.47778 26.39505 39892 ft 454 kts 321°
2026-04-26 13:29 44.52722 26.34058 39896 ft 455 kts 320°
2026-04-26 13:29 44.57676 26.28586 39903 ft 455 kts 320°
2026-04-26 13:30 44.62647 26.23085 39895 ft 455 kts 320°
2026-04-26 13:30 44.67586 26.17606 39894 ft 454 kts 320°
2026-04-26 13:31 44.72544 26.12093 39892 ft 454 kts 320°
2026-04-26 13:31 44.77516 26.06552 39895 ft 454 kts 320°
2026-04-26 13:32 44.82428 26.01067 39881 ft 453 kts 320°
2026-04-26 13:32 44.87367 25.95538 39888 ft 452 kts 320°
2026-04-26 13:33 44.92275 25.90031 39897 ft 451 kts 320°
2026-04-26 13:33 44.97156 25.84543 39896 ft 450 kts 320°
2026-04-26 13:34 45.02045 25.79033 39899 ft 450 kts 320°
2026-04-26 13:34 45.06917 25.73531 39919 ft 450 kts 320°
2026-04-26 13:35 45.11818 25.67983 39936 ft 449 kts 320°
2026-04-26 13:35 45.16673 25.62474 39950 ft 449 kts 320°
2026-04-26 13:36 45.21547 25.56932 39963 ft 449 kts 320°
2026-04-26 13:36 45.26382 25.51421 39959 ft 449 kts 320°
2026-04-26 13:37 45.31239 25.45873 39961 ft 449 kts 320°
2026-04-26 13:37 45.36124 25.40280 39971 ft 449 kts 320°
2026-04-26 13:38 45.40933 25.34762 39978 ft 449 kts 319°
2026-04-26 13:38 45.45818 25.29143 39990 ft 449 kts 319°
2026-04-26 13:39 45.50642 25.23582 39994 ft 449 kts 319°
2026-04-26 13:39 45.55498 25.17972 39994 ft 449 kts 319°
2026-04-26 13:40 45.60347 25.12356 39996 ft 449 kts 319°
2026-04-26 13:40 45.65195 25.06729 40000 ft 449 kts 319°
2026-04-26 13:41 45.70010 25.01127 40005 ft 448 kts 318°
2026-04-26 13:41 45.74804 24.95538 40023 ft 448 kts 318°
2026-04-26 13:42 45.79596 24.89937 40036 ft 449 kts 318°
2026-04-26 13:42 45.84413 24.84294 40032 ft 449 kts 318°
2026-04-26 13:43 45.89016 24.78891 40037 ft 449 kts 318°
2026-04-26 13:43 45.93868 24.73154 40032 ft 449 kts 316°
2026-04-26 13:44 45.97821 24.66552 40050 ft 446 kts 309°
2026-04-26 13:44 46.02554 24.60789 40052 ft 451 kts 324°
2026-04-26 13:45 46.07576 24.55843 40049 ft 450 kts 321°
2026-04-26 13:45 46.12561 24.50475 40054 ft 449 kts 320°
2026-04-26 13:46 46.17475 24.44911 40049 ft 448 kts 319°
2026-04-26 13:46 46.22298 24.39303 40054 ft 447 kts 318°
2026-04-26 13:47 46.27120 24.33611 40061 ft 445 kts 317°
2026-04-26 13:47 46.31901 24.27919 40064 ft 446 kts 317°
2026-04-26 13:48 46.36651 24.22231 40065 ft 445 kts 318°
2026-04-26 13:48 46.41402 24.16520 40061 ft 444 kts 318°
2026-04-26 13:49 46.46121 24.10829 40059 ft 444 kts 318°
2026-04-26 13:49 46.50842 24.05120 40064 ft 443 kts 318°
2026-04-26 13:50 46.55573 23.99384 40066 ft 442 kts 318°
2026-04-26 13:50 46.60270 23.93674 40062 ft 442 kts 318°
2026-04-26 13:51 46.64818 23.88134 40066 ft 441 kts 318°
2026-04-26 13:51 46.69510 23.82404 40067 ft 441 kts 318°
2026-04-26 13:52 46.73967 23.76948 40061 ft 440 kts 318°
2026-04-26 13:52 46.78625 23.71234 40063 ft 438 kts 318°
2026-04-26 13:53 46.83194 23.65616 40067 ft 437 kts 318°
2026-04-26 13:53 46.87718 23.60040 40075 ft 436 kts 318°
2026-04-26 13:54 46.92127 23.54593 40067 ft 435 kts 319°
2026-04-26 13:54 46.96713 23.48915 40073 ft 435 kts 319°
2026-04-26 13:55 47.02674 23.41514 40074 ft 434 kts 319°
2026-04-26 13:56 47.10176 23.32171 40100 ft 434 kts 318°
2026-04-26 13:56 47.14697 23.26521 40118 ft 434 kts 318°
2026-04-26 13:57 47.19276 23.20786 40120 ft 434 kts 318°
2026-04-26 13:57 47.23891 23.14992 40116 ft 433 kts 318°
2026-04-26 13:58 47.28424 23.09289 40126 ft 432 kts 318°
2026-04-26 13:58 47.33009 23.03505 40121 ft 432 kts 318°
2026-04-26 13:59 47.37561 22.97750 40119 ft 431 kts 318°
2026-04-26 13:59 47.42106 22.91990 40119 ft 431 kts 318°
2026-04-26 14:00 47.51158 22.80478 40121 ft 431 kts 318°
2026-04-26 14:01 47.55693 22.74690 40126 ft 431 kts 318°
2026-04-26 14:01 47.60156 22.68980 40124 ft 431 kts 318°
2026-04-26 14:02 47.64647 22.63221 40117 ft 431 kts 318°
2026-04-26 14:02 47.69094 22.57506 40115 ft 431 kts 318°
2026-04-26 14:03 47.73505 22.51823 40120 ft 431 kts 318°
2026-04-26 14:03 47.77976 22.46048 40116 ft 430 kts 318°
2026-04-26 14:04 47.82807 22.40953 40123 ft 432 kts 327°
2026-04-26 14:04 47.87973 22.36412 40118 ft 432 kts 327°
2026-04-26 14:05 47.93150 22.31808 40129 ft 433 kts 326°
2026-04-26 14:05 47.98304 22.27187 40126 ft 433 kts 326°
2026-04-26 14:06 48.03431 22.22565 40135 ft 433 kts 326°
2026-04-26 14:06 48.08525 22.17955 40107 ft 433 kts 326°
2026-04-26 14:07 48.13632 22.13320 40133 ft 432 kts 326°
2026-04-26 14:07 48.18734 22.08675 40142 ft 433 kts 326°
2026-04-26 14:08 48.23839 22.04017 40134 ft 433 kts 326°
2026-04-26 14:08 48.29001 21.99295 40130 ft 433 kts 326°
2026-04-26 14:09 48.34131 21.94591 40149 ft 433 kts 326°
2026-04-26 14:09 48.39213 21.89919 40123 ft 433 kts 326°
2026-04-26 14:10 48.44310 21.85222 40125 ft 433 kts 326°
2026-04-26 14:10 48.49314 21.80598 40148 ft 433 kts 326°
2026-04-26 14:11 48.56947 21.73526 40138 ft 434 kts 325°
2026-04-26 14:11 48.62069 21.68767 40133 ft 434 kts 326°
2026-04-26 14:12 48.67054 21.64123 40130 ft 434 kts 325°
2026-04-26 14:12 48.72076 21.59434 40132 ft 434 kts 325°
2026-04-26 14:13 48.79731 21.52264 40132 ft 433 kts 326°
2026-04-26 14:14 48.84843 21.47462 40128 ft 433 kts 325°
2026-04-26 14:14 48.89930 21.42672 40116 ft 433 kts 325°
2026-04-26 14:15 48.94996 21.37890 40141 ft 432 kts 325°
2026-04-26 14:15 49.00023 21.33133 40153 ft 431 kts 324°
2026-04-26 14:16 49.04911 21.28497 40155 ft 431 kts 324°
2026-04-26 14:16 49.09924 21.23730 40141 ft 431 kts 324°
2026-04-26 14:17 49.14986 21.18907 40121 ft 431 kts 324°
2026-04-26 14:17 49.20047 21.14071 40124 ft 431 kts 324°
2026-04-26 14:18 49.25102 21.09230 40126 ft 430 kts 324°
2026-04-26 14:18 49.30138 21.04395 40113 ft 430 kts 324°
2026-04-26 14:19 49.35330 21.00042 40106 ft 435 kts 333°
2026-04-26 14:19 49.40801 20.96937 40108 ft 436 kts 335°
2026-04-26 14:20 49.46431 20.93783 40131 ft 435 kts 335°
2026-04-26 14:20 49.51993 20.90647 40139 ft 435 kts 335°
2026-04-26 14:21 49.57659 20.87438 40139 ft 435 kts 335°
2026-04-26 14:21 49.63303 20.84230 40138 ft 434 kts 335°
2026-04-26 14:22 49.68945 20.81011 40161 ft 433 kts 335°
2026-04-26 14:22 49.74509 20.77829 40149 ft 433 kts 335°
2026-04-26 14:23 49.80127 20.74608 40147 ft 432 kts 335°
2026-04-26 14:23 49.85679 20.71417 40150 ft 430 kts 335°
2026-04-26 14:24 49.91244 20.68211 40154 ft 429 kts 335°
2026-04-26 14:24 49.96815 20.64993 40154 ft 429 kts 335°
2026-04-26 14:25 50.02393 20.61763 40145 ft 429 kts 335°
2026-04-26 14:25 50.07923 20.58554 40168 ft 429 kts 335°
2026-04-26 14:26 50.13325 20.55410 40167 ft 429 kts 335°
2026-04-26 14:26 50.18725 20.52260 40185 ft 429 kts 335°
2026-04-26 14:27 50.24278 20.49014 40173 ft 429 kts 336°
2026-04-26 14:27 50.29811 20.45771 40180 ft 429 kts 335°
2026-04-26 14:28 50.35291 20.42551 40165 ft 429 kts 336°
2026-04-26 14:28 50.40729 20.39348 40173 ft 429 kts 336°
2026-04-26 14:29 50.46157 20.36143 40157 ft 429 kts 335°
2026-04-26 14:29 50.51368 20.33059 40170 ft 428 kts 335°
2026-04-26 14:30 50.56899 20.29798 40171 ft 429 kts 337°
2026-04-26 14:30 50.62685 20.27905 40160 ft 439 kts 350°
2026-04-26 14:31 50.68771 20.28402 40176 ft 452 kts
2026-04-26 14:31 50.74786 20.31405 40192 ft 465 kts 15°
2026-04-26 14:32 50.80699 20.35528 40231 ft 466 kts 15°
2026-04-26 14:32 50.86579 20.39656 40258 ft 465 kts 16°
2026-04-26 14:33 50.92415 20.43765 40249 ft 466 kts 15°
2026-04-26 14:33 50.98106 20.47783 40266 ft 466 kts 15°
2026-04-26 14:34 51.03950 20.51921 40311 ft 465 kts 16°
2026-04-26 14:34 51.09772 20.56054 40332 ft 464 kts 15°
2026-04-26 14:35 51.15664 20.60250 40427 ft 463 kts 15°
2026-04-26 14:35 51.21520 20.64430 40482 ft 463 kts 15°
2026-04-26 14:36 51.27289 20.69051 40461 ft 474 kts 25°
2026-04-26 14:36 51.32357 20.75922 40497 ft 489 kts 38°
2026-04-26 14:37 51.37045 20.83830 40485 ft 491 kts 38°
2026-04-26 14:37 51.41718 20.91753 40501 ft 491 kts 38°
2026-04-26 14:38 51.46362 20.99648 40658 ft 488 kts 38°
2026-04-26 14:38 51.50972 21.07502 40727 ft 486 kts 38°
2026-04-26 14:39 51.55583 21.15377 40774 ft 485 kts 38°
2026-04-26 14:39 51.60122 21.23156 40892 ft 483 kts 38°
2026-04-26 14:40 51.64665 21.30962 40962 ft 483 kts 38°
2026-04-26 14:40 51.69221 21.38817 41053 ft 482 kts 39°
2026-04-26 14:41 51.73758 21.46663 41115 ft 480 kts 39°
2026-04-26 14:41 51.78276 21.54499 41124 ft 481 kts 39°
2026-04-26 14:42 51.82829 21.62422 41125 ft 483 kts 39°
2026-04-26 14:42 51.87329 21.70278 41118 ft 483 kts 39°
2026-04-26 14:43 51.91874 21.78237 41085 ft 483 kts 39°
2026-04-26 14:44 52.00980 21.94263 41086 ft 483 kts 40°
2026-04-26 14:44 52.05426 22.02125 41081 ft 483 kts 40°
2026-04-26 14:45 52.09963 22.10174 41087 ft 484 kts 40°
2026-04-26 14:45 52.14875 22.17104 41095 ft 470 kts 26°
2026-04-26 14:46 52.20489 22.21726 41086 ft 458 kts 13°
2026-04-26 14:46 52.26523 22.24192 41089 ft 452 kts
2026-04-26 14:47 52.32669 22.26224 41107 ft 453 kts
2026-04-26 14:47 52.38799 22.28316 41097 ft 454 kts
2026-04-26 14:48 52.44944 22.30452 41098 ft 455 kts
2026-04-26 14:48 52.51089 22.32613 41100 ft 455 kts
2026-04-26 14:49 52.57279 22.34804 41077 ft 456 kts
2026-04-26 14:49 52.63445 22.36998 41093 ft 456 kts
2026-04-26 14:50 52.69658 22.39217 41090 ft 457 kts
2026-04-26 14:50 52.75834 22.41430 41084 ft 458 kts
2026-04-26 14:51 52.82019 22.43654 41085 ft 458 kts
2026-04-26 14:51 52.88112 22.45853 41066 ft 459 kts
2026-04-26 14:52 52.94295 22.48090 41082 ft 459 kts
2026-04-26 14:52 53.00512 22.50347 41074 ft 459 kts
2026-04-26 14:53 53.06715 22.52604 41066 ft 459 kts
2026-04-26 14:53 53.12873 22.54852 41087 ft 460 kts
2026-04-26 14:54 53.19113 22.57137 41073 ft 461 kts
2026-04-26 14:54 53.25346 22.59426 41082 ft 462 kts
2026-04-26 14:55 53.31607 22.61731 41064 ft 463 kts
2026-04-26 14:55 53.37904 22.64057 41068 ft 463 kts
2026-04-26 14:56 53.43990 22.66311 41066 ft 464 kts
2026-04-26 14:56 53.50288 22.68650 41051 ft 464 kts
2026-04-26 14:57 53.56574 22.70993 41059 ft 464 kts
2026-04-26 14:57 53.62855 22.73341 41049 ft 464 kts
2026-04-26 14:58 53.69141 22.75698 41055 ft 465 kts
2026-04-26 14:58 53.75471 22.78078 41053 ft 465 kts
2026-04-26 14:59 53.81760 22.80449 41041 ft 466 kts
2026-04-26 14:59 53.88071 22.82836 41040 ft 466 kts
2026-04-26 15:00 53.94398 22.85235 41040 ft 466 kts
2026-04-26 15:00 54.00688 22.87628 41040 ft 467 kts
2026-04-26 15:01 54.07012 22.90042 41026 ft 467 kts
2026-04-26 15:01 54.13322 22.92501 41027 ft 467 kts
2026-04-26 15:02 54.19647 22.94984 41032 ft 468 kts
2026-04-26 15:02 54.25963 22.97471 41010 ft 468 kts
2026-04-26 15:03 54.32328 22.99983 41017 ft 468 kts
2026-04-26 15:03 54.38611 23.02470 41042 ft 469 kts
2026-04-26 15:04 54.44952 23.04988 41035 ft 469 kts
2026-04-26 15:04 54.51279 23.07509 41031 ft 469 kts
2026-04-26 15:05 54.57492 23.09991 41046 ft 470 kts
2026-04-26 15:05 54.63411 23.12363 41021 ft 470 kts
2026-04-26 15:06 54.69867 23.14960 41024 ft 470 kts
2026-04-26 15:06 54.76161 23.17498 41021 ft 470 kts
2026-04-26 15:07 54.85688 23.21356 41014 ft 471 kts
2026-04-26 15:07 54.92055 23.23945 41008 ft 470 kts
2026-04-26 15:08 54.98408 23.26537 41002 ft 471 kts
2026-04-26 15:08 55.04766 23.29139 40995 ft 471 kts
2026-04-26 15:09 55.11166 23.31767 41003 ft 470 kts
2026-04-26 15:09 55.17475 23.34366 41005 ft 471 kts
2026-04-26 15:10 55.22791 23.36563 40999 ft 471 kts
2026-04-26 15:10 55.30236 23.39648 40992 ft 472 kts 10°
2026-04-26 15:11 55.36628 23.42308 40982 ft 472 kts
2026-04-26 15:11 55.42995 23.44966 40968 ft 472 kts
2026-04-26 15:12 55.49212 23.47570 40962 ft 473 kts
2026-04-26 15:12 55.55407 23.50172 40963 ft 473 kts 10°
2026-04-26 15:13 55.61691 23.52822 40959 ft 473 kts 10°
2026-04-26 15:13 55.68082 23.55525 40961 ft 473 kts
2026-04-26 15:14 55.74464 23.58233 40953 ft 473 kts 10°
2026-04-26 15:14 55.80876 23.60963 40960 ft 473 kts 10°
2026-04-26 15:15 55.87270 23.63695 40948 ft 474 kts 10°
2026-04-26 15:15 55.93248 23.65958 40948 ft 472 kts
2026-04-26 15:16 55.99872 23.67920 40936 ft 472 kts
2026-04-26 15:16 56.06237 23.69843 40941 ft 472 kts
2026-04-26 15:17 56.11583 23.71481 40949 ft 472 kts
2026-04-26 15:17 56.19135 23.73817 40931 ft 473 kts
2026-04-26 15:18 56.25591 23.75829 40929 ft 474 kts
2026-04-26 15:18 56.32022 23.77846 40780 ft 459 kts
2026-04-26 15:19 56.35146 23.78829 39963 ft 459 kts
2026-04-26 15:19 56.38279 23.79814 39177 ft 458 kts
2026-04-26 15:19 56.41417 23.80804 38953 ft 456 kts
2026-04-26 15:19 56.44539 23.81790 38931 ft 459 kts
2026-04-26 15:20 56.50864 23.83792 38928 ft 464 kts
2026-04-26 15:20 56.57219 23.85812 38930 ft 469 kts
2026-04-26 15:21 56.63635 23.87861 38929 ft 467 kts
2026-04-26 15:21 56.69993 23.89897 38937 ft 466 kts
2026-04-26 15:22 56.76366 23.91944 38932 ft 468 kts
2026-04-26 15:22 56.82755 23.94005 38946 ft 468 kts
2026-04-26 15:23 56.89088 23.96054 38922 ft 469 kts
2026-04-26 15:23 56.95520 23.98142 38927 ft 470 kts
2026-04-26 15:24 57.01933 24.00232 38925 ft 469 kts
2026-04-26 15:24 57.08364 24.02335 38921 ft 471 kts
2026-04-26 15:25 57.13718 24.04091 38925 ft 470 kts
2026-04-26 15:25 57.21204 24.06555 38920 ft 470 kts
2026-04-26 15:26 57.27638 24.08681 38917 ft 471 kts
2026-04-26 15:26 57.34058 24.10811 38904 ft 469 kts
2026-04-26 15:27 57.40473 24.12945 38901 ft 472 kts
2026-04-26 15:27 57.46925 24.15100 38901 ft 470 kts
2026-04-26 15:28 57.53380 24.17264 38899 ft 472 kts
2026-04-26 15:28 57.59812 24.19428 38873 ft 471 kts
2026-04-26 15:29 57.66285 24.21613 38870 ft 473 kts
2026-04-26 15:30 57.79200 24.25997 38858 ft 472 kts
2026-04-26 15:30 57.85627 24.28191 38862 ft 473 kts
2026-04-26 15:31 57.95264 24.31495 38851 ft 474 kts
2026-04-26 15:32 58.03919 24.34478 38845 ft 473 kts
2026-04-26 15:32 58.11454 24.37087 38776 ft 469 kts
2026-04-26 15:33 58.14576 24.38174 38547 ft 456 kts
2026-04-26 15:33 58.17673 24.39254 38292 ft 442 kts
2026-04-26 15:33 58.20652 24.40070 37961 ft 431 kts
2026-04-26 15:33 58.23645 24.40098 37622 ft 429 kts 354°
2026-04-26 15:34 58.26610 24.39313 37267 ft 433 kts 346°
2026-04-26 15:34 58.29522 24.37952 36877 ft 432 kts 344°
2026-04-26 15:34 58.32396 24.36538 36450 ft 428 kts 344°
2026-04-26 15:34 58.35238 24.35140 36030 ft 423 kts 345°
2026-04-26 15:35 58.38077 24.33748 35601 ft 418 kts 345°
2026-04-26 15:35 58.40866 24.32384 35172 ft 415 kts 345°
2026-04-26 15:35 58.43624 24.31034 34744 ft 414 kts 345°
2026-04-26 15:35 58.46407 24.29673 34331 ft 415 kts 345°
2026-04-26 15:36 58.52086 24.26895 34490 ft 431 kts 345°
2026-04-26 15:36 58.57961 24.24015 34500 ft 439 kts 345°
2026-04-26 15:37 58.63847 24.21122 34499 ft 436 kts 345°
2026-04-26 15:37 58.69600 24.18286 34505 ft 436 kts 345°
2026-04-26 15:38 58.75451 24.15391 34496 ft 435 kts 345°
2026-04-26 15:38 58.81322 24.12477 34496 ft 435 kts 345°
2026-04-26 15:39 58.87164 24.09566 34494 ft 436 kts 345°
2026-04-26 15:39 58.92003 24.07148 34489 ft 435 kts 345°
2026-04-26 15:40 58.98812 24.03733 34480 ft 436 kts 345°
2026-04-26 15:40 59.04688 24.00776 34478 ft 436 kts 345°
2026-04-26 15:41 59.10496 23.97842 34277 ft 425 kts 345°
2026-04-26 15:41 59.13318 23.96413 33635 ft 423 kts 345°
2026-04-26 15:41 59.16154 23.94974 32736 ft 430 kts 345°
2026-04-26 15:42 59.19048 23.93503 31762 ft 437 kts 345°
2026-04-26 15:42 59.21972 23.92014 31020 ft 435 kts 345°
2026-04-26 15:42 59.24841 23.90551 30665 ft 423 kts 345°
2026-04-26 15:42 59.27626 23.89129 30344 ft 413 kts 345°
2026-04-26 15:43 59.30394 23.87714 29864 ft 407 kts 344°
2026-04-26 15:43 59.33144 23.86304 29253 ft 406 kts 345°
2026-04-26 15:43 59.38555 23.83523 28098 ft 399 kts 345°
2026-04-26 15:44 59.41207 23.82157 27509 ft 395 kts 345°
2026-04-26 15:44 59.46451 23.79448 26195 ft 389 kts 345°
2026-04-26 15:44 59.49029 23.78114 25500 ft 386 kts 345°
2026-04-26 15:45 59.54117 23.75474 23916 ft 376 kts 345°
2026-04-26 15:45 59.56639 23.74162 22867 ft 376 kts 345°
2026-04-26 15:46 59.61619 23.71567 21383 ft 364 kts 345°
2026-04-26 15:46 59.64043 23.70300 20836 ft 359 kts 345°
2026-04-26 15:46 59.66442 23.69045 20296 ft 365 kts 345°
2026-04-26 15:46 59.68100 23.68176 19915 ft 372 kts 345°
2026-04-26 15:47 59.71411 23.66439 19128 ft 371 kts 345°
2026-04-26 15:47 59.76376 23.63993 17958 ft 364 kts 351°
2026-04-26 15:47 59.78886 23.63715 17381 ft 359 kts
2026-04-26 15:48 59.81308 23.64350 16828 ft 357 kts 11°
2026-04-26 15:48 59.83650 23.65870 16274 ft 356 kts 21°
2026-04-26 15:48 59.85839 23.68265 15747 ft 356 kts 31°
2026-04-26 15:48 59.87746 23.71391 15200 ft 359 kts 41°
2026-04-26 15:49 59.89320 23.75128 14651 ft 352 kts 51°
2026-04-26 15:49 59.90535 23.79272 14100 ft 336 kts 57°
2026-04-26 15:49 59.91587 23.83256 13644 ft 319 kts 57°
2026-04-26 15:49 59.92554 23.87035 13290 ft 301 kts 57°
2026-04-26 15:50 59.93489 23.90667 12781 ft 291 kts 56°
2026-04-26 15:50 59.94416 23.94210 12119 ft 287 kts 55°
2026-04-26 15:50 59.95347 23.97745 11365 ft 287 kts 55°
2026-04-26 15:50 59.96258 24.01206 10684 ft 283 kts 54°
2026-04-26 15:51 59.97160 24.04641 10048 ft 279 kts 54°
2026-04-26 15:51 59.98047 24.08028 9757 ft 269 kts 54°
2026-04-26 15:51 59.98904 24.11296 9029 ft 273 kts 54°
2026-04-26 15:51 59.99775 24.14619 8730 ft 266 kts 54°
2026-04-26 15:52 60.00621 24.17868 8419 ft 261 kts 54°
2026-04-26 15:52 60.01461 24.21080 7973 ft 262 kts 54°
2026-04-26 15:52 60.02288 24.24254 7639 ft 258 kts 54°
2026-04-26 15:52 60.02837 24.26371 7520 ft 252 kts 54°
2026-04-26 15:53 60.03887 24.30423 7285 ft 239 kts 53°
2026-04-26 15:53 60.04624 24.33268 7122 ft 229 kts 53°
2026-04-26 15:53 60.05339 24.36026 6949 ft 220 kts 53°
2026-04-26 15:53 60.06036 24.38712 6775 ft 215 kts 53°
2026-04-26 15:54 60.06721 24.41361 6660 ft 211 kts 53°
2026-04-26 15:54 60.07395 24.43960 6577 ft 213 kts 53°
2026-04-26 15:54 60.08071 24.46584 6485 ft 212 kts 53°
2026-04-26 15:54 60.08748 24.49210 6359 ft 214 kts 53°
2026-04-26 15:55 60.09430 24.51857 6048 ft 216 kts 53°
2026-04-26 15:55 60.10111 24.54516 5823 ft 214 kts 53°
2026-04-26 15:55 60.10768 24.57081 5631 ft 212 kts 53°
2026-04-26 15:55 60.11440 24.59701 5425 ft 210 kts 53°
2026-04-26 15:56 60.12106 24.62301 5236 ft 209 kts 53°
2026-04-26 15:56 60.12770 24.64895 5074 ft 210 kts 53°
2026-04-26 15:56 60.13405 24.67330 4906 ft 209 kts 54°
2026-04-26 15:56 60.13766 24.70237 4715 ft 228 kts 85°
2026-04-26 15:57 60.13251 24.73373 4520 ft 246 kts 119°
2026-04-26 15:57 60.12005 24.75772 4299 ft 254 kts 139°
2026-04-26 15:57 60.10567 24.77877 4075 ft 254 kts 140°
2026-04-26 15:57 60.09613 24.79258 3927 ft 254 kts 140°
2026-04-26 15:58 60.07726 24.81984 3627 ft 253 kts 140°
2026-04-26 15:58 60.06363 24.84193 3387 ft 248 kts 123°
2026-04-26 15:58 60.05653 24.87158 3141 ft 230 kts 89°
2026-04-26 15:58 60.05732 24.90190 2999 ft 214 kts 71°
2026-04-26 15:59 60.05991 24.93111 2981 ft 211 kts 70°
2026-04-26 15:59 60.06256 24.95933 2973 ft 203 kts 65°
2026-04-26 15:59 60.06690 24.98576 2979 ft 200 kts 60°
2026-04-26 15:59 60.07158 25.01182 2981 ft 192 kts 60°
2026-04-26 16:00 60.07598 25.03661 2973 ft 189 kts 60°
2026-04-26 16:00 60.08036 25.06142 2972 ft 187 kts 60°
2026-04-26 16:00 60.08466 25.08601 2967 ft 188 kts 60°
2026-04-26 16:00 60.08896 25.11058 2964 ft 188 kts 60°
2026-04-26 16:01 60.09369 25.13468 2962 ft 180 kts 47°
2026-04-26 16:01 60.10285 25.14895 2959 ft 164 kts 14°
2026-04-26 16:01 60.11382 25.15530 2965 ft 164 kts 10°
2026-04-26 16:01 60.12477 25.16121 2968 ft 162 kts 10°
2026-04-26 16:02 60.13525 25.16706 2977 ft 150 kts 10°
2026-04-26 16:02 60.14486 25.16789 2962 ft 133 kts 340°
2026-04-26 16:02 60.15301 25.15992 2972 ft 128 kts 337°
2026-04-26 16:02 60.15821 25.15487 2981 ft 125 kts 336°
2026-04-26 16:03 60.16792 25.14509 2996 ft 112 kts 336°
2026-04-26 16:03 60.17499 25.13799 2916 ft 114 kts 336°
2026-04-26 16:03 60.18180 25.13114 2774 ft 113 kts 336°
2026-04-26 16:03 60.18841 25.12289 2603 ft 113 kts 329°
2026-04-26 16:04 60.19416 25.11435 2449 ft 114 kts 328°
2026-04-26 16:04 60.20431 25.09833 2161 ft 113 kts 326°
2026-04-26 16:04 60.20933 25.09001 2088 ft 112 kts 328°
2026-04-26 16:05 60.21738 25.08091 2077 ft 111 kts 335°
2026-04-26 16:05 60.22361 25.07437 2079 ft 112 kts 335°
2026-04-26 16:05 60.22934 25.06833 2071 ft 113 kts 335°
2026-04-26 16:05 60.23469 25.06270 2079 ft 112 kts 335°
2026-04-26 16:06 60.24045 25.05666 1962 ft 114 kts 335°
2026-04-26 16:06 60.24742 25.04933 1803 ft 114 kts 335°
2026-04-26 16:06 60.26181 25.03417 1406 ft 114 kts 335°
2026-04-26 16:07 60.26667 25.02948 1266 ft 115 kts 335°
2026-04-26 16:07 60.27630 25.01984 956 ft 116 kts 334°
2026-04-26 16:07 60.28458 25.01118 775 ft 116 kts 333°